CZ-6A DEB, 54437

Orbit data source: Space-Track

CZ-6A DEB, 54437 is space debris in SSO originally from a launch on Fri, 11 Nov 2022 UTC launched from the Taiyaun Space Center, China (TSC). Debris objects in space refer to the collection of defunct objects orbiting the Earth. Examples of debris include non-operational satellites, rocket bodies, and fragments generated from explosions, collisions, or faulty payload assembly.

Loading next visibility...
Identifier
54437, 2022-151FM
Orbit
SSO
Country
Flag of CNCN / PRC
Related business
Manufacturer
SAST
Mission
Spacecraft
Bus & Motor
Unknown
Mass
Unknown
Launch date (UTC)
2022-11-11 (4 years ago)
Launch vehicle
Unknown
Launch site
Taiyaun Space Center, China (TSC)
Object type
Payload
Rocket body
Debris
Shape & HBR
Unknown shape, 0.1 m
Radar Cross Section
Small (<0.1 m²)

Expand to show TLE details & history
Last TLE update: 19 hours ago

TLE from 19 hours ago
0 CZ-6A DEB
1 54437U 22151FM  26265.12826964  .00003053  00000-0  56264-3 0  9990
2 54437  98.6178 332.2588 0087192 350.5181   9.4370 14.63907157204131
Epoch: 2026-09-22T03:04Z
TLE epoch observation values (Epoch: 2026-09-22T03:04:42.496Z)
Latitude
-0.00006°
Longitude
-74.91645°
Altitude
622.852 km
Speed
7.58 km/s
True Right ascension
22h 09m 02s
True Declination
0° 00' 00"
Sunlit
Object was in full shadow at epoch
Visualization orbit readout
Latitude
Unknown
Longitude
Unknown
Altitude
Unknown
Speed
Unknown
Apparent Right ascension
Unknown
Apparent Declination
Unknown
Sunlit
N/A
Visualization observer readout
Local Sidereal Time
15:37:08
Azimuth
Unknown
Elevation
Unknown
Doppler factor
Unknown
Orbital elements
Apogee altitude
739.203 km
Perigee altitude
616.16 km
Semi-major axis
7,055.819 km
Eccentricity
0.00872
Inclination
98.6178°
RAAN
332.2588°
Arg. of periapsis
350.5181°
True anomaly
9.6026°
Mean anomaly
9.437°
Eccentric anomaly
9.51962°
Mean motion
3.66203 °/min
Orbital period
98.31 mins
BSTAR
0.00056264
Loading maneuver chart data...
Computing Atmospheric mass density...
Loading historical data...
Loading historical data...
Loading historical data...
Loading historical data...
Loading historical data...
Loading historical data...
Loading historical data...

Documentation

Showing up to 5 results
|